{"data":{"norad_id":48931,"intl_designator":"2021-059BE","name":"HAWK-3B","alt_names":[],"object_type":"PAYLOAD","status":"ACTIVE","operator":null,"country":"US","launch_date":"2021-06-30","launch_site_code":"AFETR","launch_vehicle":null,"mission":null,"orbit_class":"UNKNOWN","rcs_meters":null,"size_class":null,"mass_kg":null,"dimensions":null,"purposes":["tech_demo"],"wikipedia_slug":null,"has_3d_model":false,"image_url":null,"decayed_at":null,"tle_current":{"epoch":"2026-09-20T00:16:14.655936Z","epoch_age_seconds":56682,"freshness":"FRESH","line1":"1 48931U 21059BE  26263.01128074  .00049306  00000+0  29114-3 0  9995","line2":"2 48931  97.6557 109.2560 0002850 345.2786  14.8396 15.78015436292766","mean_motion":15.78015436,"eccentricity":0.000285,"inclination_deg":97.6557,"raan_deg":109.256,"arg_perigee_deg":345.2786,"mean_anomaly_deg":14.8396,"bstar":0.00029114,"rev_number":29276,"period_min":91.253860206219,"perigee_km":334.15052778584,"apogee_km":337.97762239864,"semimajor_km":6714.2010750922,"source":"CELESTRAK","updated_at":"2026-09-20T09:00:47.449463Z"}}}